TimeEDT,TemperatureF,Dew PointF,Humidity,Sea Level PressureIn,VisibilityMPH,Wind Direction,Wind SpeedMPH,Gust SpeedMPH,PrecipitationIn,Events,Conditions,WindDirDegrees,DateUTC
12:53 AM,64.9,61.0,87,29.69,9.0,SSW,6.9,-,N/A,,Overcast,200,2012-09-18 04:53:00
1:53 AM,63.0,61.0,93,29.66,6.0,South,4.6,-,N/A,,Scattered Clouds,190,2012-09-18 05:53:00
2:04 AM,62.6,60.8,94,29.67,5.0,SSW,4.6,-,N/A,,Mostly Cloudy,200,2012-09-18 06:04:00
2:11 AM,64.4,60.8,88,29.67,5.0,SSW,5.8,-,N/A,,Mostly Cloudy,210,2012-09-18 06:11:00
2:53 AM,64.9,62.1,90,29.65,5.0,WSW,9.2,-,N/A,,Overcast,240,2012-09-18 06:53:00
3:37 AM,64.4,62.6,94,29.64,5.0,WSW,4.6,-,N/A,,Overcast,250,2012-09-18 07:37:00
3:53 AM,64.0,61.0,90,29.63,5.0,WSW,4.6,-,N/A,,Overcast,250,2012-09-18 07:53:00
4:07 AM,64.4,60.8,88,29.63,5.0,WSW,3.5,-,N/A,,Mostly Cloudy,240,2012-09-18 08:07:00
4:53 AM,64.0,60.1,87,29.61,5.0,NW,5.8,-,N/A,,Overcast,320,2012-09-18 08:53:00
5:35 AM,62.6,57.2,82,29.62,10.0,NW,8.1,-,N/A,,Overcast,310,2012-09-18 09:35:00
5:43 AM,62.6,57.2,82,29.62,10.0,WNW,8.1,-,N/A,,Overcast,300,2012-09-18 09:43:00
5:53 AM,63.0,57.0,81,29.61,10.0,NNW,11.5,17.3,N/A,,Overcast,330,2012-09-18 09:53:00
6:53 AM,59.0,53.1,81,29.62,10.0,NNW,13.8,20.7,N/A,,Overcast,340,2012-09-18 10:53:00
7:03 AM,57.2,53.6,88,29.63,10.0,NW,12.7,-,N/A,,Overcast,320,2012-09-18 11:03:00
7:45 AM,55.4,51.8,88,29.65,10.0,NNW,15.0,23.0,0.01,Rain,Light Rain,330,2012-09-18 11:45:00
8:53 AM,54.0,48.9,83,29.65,10.0,NNW,13.8,20.7,N/A,,Overcast,340,2012-09-18 12:53:00
9:02 AM,53.6,48.2,82,29.66,10.0,North,15.0,21.9,N/A,,Overcast,350,2012-09-18 13:02:00
9:53 AM,54.0,48.0,80,29.68,10.0,NNW,13.8,18.4,N/A,,Mostly Cloudy,330,2012-09-18 13:53:00
10:53 AM,59.0,46.0,62,29.69,10.0,North,10.4,19.6,N/A,,Partly Cloudy,350,2012-09-18 14:53:00
11:53 AM,60.1,44.1,55,29.70,10.0,NNW,17.3,21.9,N/A,,Scattered Clouds,340,2012-09-18 15:53:00
12:53 PM,59.0,44.1,58,29.71,10.0,NNW,10.4,20.7,N/A,,Overcast,330,2012-09-18 16:53:00
1:53 PM,60.1,44.1,55,29.72,10.0,NW,11.5,-,N/A,,Overcast,320,2012-09-18 17:53:00
2:53 PM,61.0,46.0,58,29.72,10.0,NNW,9.2,-,0.00,,Mostly Cloudy,340,2012-09-18 18:53:00
3:53 PM,61.0,43.0,52,29.75,10.0,NW,12.7,-,N/A,,Mostly Cloudy,320,2012-09-18 19:53:00
4:53 PM,55.9,46.0,69,29.78,10.0,NNW,10.4,-,0.03,,Overcast,330,2012-09-18 20:53:00
5:53 PM,57.0,42.1,57,29.81,10.0,NW,12.7,25.3,N/A,,Scattered Clouds,320,2012-09-18 21:53:00
6:53 PM,55.9,36.0,47,29.83,10.0,WNW,15.0,20.7,N/A,,Clear,300,2012-09-18 22:53:00
7:53 PM,54.0,34.0,47,29.87,10.0,WNW,11.5,-,N/A,,Clear,300,2012-09-18 23:53:00
8:53 PM,51.1,34.0,52,29.91,10.0,WNW,8.1,-,N/A,,Clear,300,2012-09-19 00:53:00
9:53 PM,48.9,35.1,59,29.95,10.0,NW,5.8,-,N/A,,Clear,310,2012-09-19 01:53:00
10:53 PM,45.0,35.1,68,29.96,10.0,WNW,5.8,-,N/A,,Clear,290,2012-09-19 02:53:00
11:53 PM,45.0,35.1,68,29.98,10.0,WNW,5.8,-,N/A,,Clear,300,2012-09-19 03:53:00